sat.trackr.live / text

‹ back to catalog

STARLINK-2476

NORAD 48134 · 2021-027AU

PAYLOAD ACTIVE UNKNOWN

§ Identity

Operator
Country
US
Launch date
2021-04-07
Launch site
AFETR
Launch vehicle
Mass (kg)
RCS (m²)

Purposes: comms

External: N2YO · Heavens-Above · Gunter

§ Orbital elements

Epoch: 2026-09-20T04:46:46.039872Z

Period
94.01 min
Inclination
53.1653°
Eccentricity
0.0001780
Mean motion
15.31699010 rev/d
Perigee alt
469.5 km
Apogee alt
472.0 km
Semi-major
6,848.9 km
B*
1.5472e-5
RAAN
340.0427°
Arg perigee
15.6170°
Mean anomaly
344.4886°
Rev number
30,231

§ Raw data

STARLINK-24761 48134U 21027AU  26263.19914398  .00000115  00000+0  15472-4 0  99942 48134  53.1653 340.0427 0001780  15.6170 344.4886 15.31699010302312

JSON: /api/v1/satellites/48134 · /tle

For live sub-satellite position, see the globe view (requires WebGL).

§ Visibility from observer

Set your observer location to see the next 7 days of passes ≥ 10°. The values pass through the URL so the page stays shareable.

No JS? Fill the form by hand. The geolocation button needs JavaScript.